When you browse on this site, cookies collect data to enhance your experience and personalize the content and advertising you see.
Visit our Privacy Policy to learn more. By continuing to use the site, you agree to this use of cookies and data.
  • en France
  • Liste des pays
  • À 7 jours
  • Température de l'eau
  • Carte satellitaire
  • Carte météo
  • Widgets météo
  • user-avatar
    Se connecter

    Météo par heure à Shusha

    Ce jour, 18 Juin, Mardi

    Heure Température Précipitation Vent Pression Humidité
    00:00 +19°C° 0 mm 1 m/s 657 mmHg 73%
    01:00 +19°C° 0.2 mm 1 m/s 657 mmHg 74%
    02:00 +19°C° 0.2 mm 1 m/s 657 mmHg 75%
    03:00 +18°C° 0 mm 1 m/s 657 mmHg 73%
    04:00 +19°C° 0.3 mm 1 m/s 657 mmHg 72%
    05:00 +19°C° 0.3 mm 1 m/s 658 mmHg 71%
    06:00 +20°C° 0.3 mm 1 m/s 658 mmHg 70%
    07:00 +21°C° 0.1 mm 1 m/s 658 mmHg 65%
    08:00 +22°C° 0.1 mm 1 m/s 659 mmHg 60%
    09:00 +24°C° 0.1 mm 2 m/s 659 mmHg 55%
    10:00 +25°C° 0.3 mm 2 m/s 659 mmHg 53%
    11:00 +25°C° 0.3 mm 2 m/s 659 mmHg 51%
    12:00 +26°C° 0.3 mm 2 m/s 659 mmHg 49%
    13:00 +27°C° 0.3 mm 2 m/s 658 mmHg 48%
    14:00 +27°C° 0.3 mm 2 m/s 658 mmHg 47%
    15:00 +27°C° 0.3 mm 2 m/s 658 mmHg 46%
    16:00 +26°C° 0.4 mm 2 m/s 658 mmHg 51%
    17:00 +25°C° 0.4 mm 2 m/s 657 mmHg 57%
    18:00 +24°C° 0.4 mm 2 m/s 657 mmHg 62%
    19:00 +23°C° 0.5 mm 2 m/s 657 mmHg 65%
    20:00 +21°C° 0.5 mm 1 m/s 657 mmHg 69%
    21:00 +19°C° 0.5 mm 1 m/s 657 mmHg 72%
    22:00 +19°C° 0.7 mm 1 m/s 657 mmHg 72%
    23:00 +19°C° 0.7 mm 1 m/s 658 mmHg 73%

    Demain, 19 Juin, Mercredi

    Heure Température Précipitation Vent Pression Humidité
    00:00 +18°C° 0.7 mm 1 m/s 658 mmHg 73%
    01:00 +18°C° 0 mm 1 m/s 658 mmHg 72%
    02:00 +18°C° 0 mm 1 m/s 657 mmHg 70%
    03:00 +18°C° 0 mm 1 m/s 657 mmHg 69%
    04:00 +18°C° 0 mm 1 m/s 658 mmHg 68%
    05:00 +19°C° 0 mm 1 m/s 658 mmHg 68%
    06:00 +20°C° 0 mm 1 m/s 658 mmHg 67%
    07:00 +21°C° 0 mm 1 m/s 658 mmHg 59%
    08:00 +23°C° 0 mm 2 m/s 659 mmHg 52%
    09:00 +24°C° 0 mm 2 m/s 659 mmHg 45%
    10:00 +25°C° 0 mm 2 m/s 659 mmHg 44%
    11:00 +25°C° 0 mm 2 m/s 659 mmHg 43%
    12:00 +26°C° 0 mm 3 m/s 659 mmHg 42%
    13:00 +26°C° 0 mm 3 m/s 659 mmHg 42%
    14:00 +27°C° 0 mm 3 m/s 659 mmHg 42%
    15:00 +27°C° 0 mm 3 m/s 659 mmHg 42%
    16:00 +26°C° 0 mm 3 m/s 658 mmHg 46%
    17:00 +26°C° 0 mm 2 m/s 658 mmHg 50%
    18:00 +25°C° 0 mm 2 m/s 658 mmHg 54%
    19:00 +24°C° 0 mm 1 m/s 658 mmHg 55%
    20:00 +22°C° 0 mm 1 m/s 658 mmHg 56%
    21:00 +20°C° 0 mm 1 m/s 658 mmHg 57%
    22:00 +20°C° 0 mm 1 m/s 658 mmHg 57%
    23:00 +19°C° 0 mm 1 m/s 658 mmHg 57%

    Après-demain, 20 Juin, Jeudi

    Heure Température Précipitation Vent Pression Humidité
    00:00 +18°C° 0 mm 2 m/s 658 mmHg 57%
    01:00 +18°C° 0 mm 2 m/s 658 mmHg 57%
    02:00 +17°C° 0 mm 2 m/s 657 mmHg 57%
    03:00 +17°C° 0 mm 2 m/s 657 mmHg 57%
    04:00 +19°C° 0 mm 1 m/s 658 mmHg 58%
    05:00 +20°C° 0 mm 1 m/s 658 mmHg 59%
    06:00 +20°C° 0 mm 1 m/s 658 mmHg 60%
    07:00 +22°C° 0 mm 1 m/s 658 mmHg 53%
    08:00 +23°C° 0 mm 1 m/s 659 mmHg 47%
    09:00 +25°C° 0 mm 2 m/s 659 mmHg 40%
    10:00 +25°C° 0 mm 2 m/s 659 mmHg 39%
    11:00 +26°C° 0 mm 2 m/s 659 mmHg 38%
    12:00 +27°C° 0 mm 2 m/s 659 mmHg 36%
    13:00 +27°C° 0 mm 3 m/s 658 mmHg 36%
    14:00 +28°C° 0 mm 3 m/s 658 mmHg 36%
    15:00 +28°C° 0 mm 3 m/s 658 mmHg 36%
    16:00 +27°C° 0 mm 3 m/s 657 mmHg 40%
    17:00 +27°C° 0 mm 2 m/s 657 mmHg 44%
    18:00 +26°C° 0 mm 2 m/s 657 mmHg 48%
    19:00 +24°C° 0 mm 2 m/s 657 mmHg 49%
    20:00 +21°C° 0 mm 2 m/s 657 mmHg 50%
    21:00 +20°C° 0 mm 1 m/s 657 mmHg 51%
    22:00 +20°C° 0 mm 1 m/s 657 mmHg 51%
    23:00 +18°C° 0 mm 2 m/s 657 mmHg 50%

    21 Juin, Vendredi

    Heure Température Précipitation Vent Pression Humidité
    00:00 +18°C° 0 mm 2 m/s 657 mmHg 49%
    01:00 +18°C° 0 mm 2 m/s 657 mmHg 49%
    02:00 +18°C° 0 mm 2 m/s 656 mmHg 48%
    03:00 +17°C° 0 mm 2 m/s 656 mmHg 48%
    04:00 +18°C° 0 mm 2 m/s 657 mmHg 50%
    05:00 +19°C° 0 mm 2 m/s 657 mmHg 52%
    06:00 +20°C° 0 mm 1 m/s 657 mmHg 54%
    07:00 +21°C° 0.1 mm 2 m/s 658 mmHg 49%
    08:00 +23°C° 0.1 mm 2 m/s 658 mmHg 44%
    09:00 +24°C° 0.1 mm 2 m/s 658 mmHg 40%
    10:00 +25°C° 0.1 mm 2 m/s 658 mmHg 39%
    11:00 +26°C° 0.1 mm 3 m/s 658 mmHg 39%
    12:00 +26°C° 0.1 mm 3 m/s 658 mmHg 39%
    13:00 +26°C° 0 mm 3 m/s 658 mmHg 39%
    14:00 +27°C° 0 mm 3 m/s 658 mmHg 40%
    15:00 +27°C° 0 mm 3 m/s 658 mmHg 40%
    16:00 +26°C° 0 mm 3 m/s 658 mmHg 44%
    17:00 +26°C° 0 mm 3 m/s 658 mmHg 48%
    18:00 +25°C° 0 mm 3 m/s 658 mmHg 52%
    19:00 +23°C° 0 mm 2 m/s 658 mmHg 55%
    20:00 +21°C° 0 mm 2 m/s 658 mmHg 58%
    21:00 +19°C° 0 mm 2 m/s 658 mmHg 61%
    22:00 +19°C° 0 mm 2 m/s 658 mmHg 61%
    23:00 +18°C° 0 mm 2 m/s 658 mmHg 62%

    22 Juin, Samedi

    Heure Température Précipitation Vent Pression Humidité
    00:00 +18°C° 0 mm 2 m/s 658 mmHg 62%
    01:00 +18°C° 0 mm 2 m/s 658 mmHg 62%
    02:00 +18°C° 0 mm 2 m/s 658 mmHg 62%
    03:00 +17°C° 0 mm 2 m/s 658 mmHg 61%
    04:00 +18°C° 0 mm 2 m/s 659 mmHg 61%
    05:00 +20°C° 0 mm 1 m/s 659 mmHg 60%
    06:00 +20°C° 0 mm 1 m/s 659 mmHg 60%
    07:00 +22°C° 0 mm 1 m/s 660 mmHg 54%
    08:00 +23°C° 0 mm 1 m/s 660 mmHg 49%
    09:00 +25°C° 0 mm 1 m/s 661 mmHg 44%
    10:00 +26°C° 0 mm 2 m/s 661 mmHg 43%
    11:00 +26°C° 0 mm 2 m/s 661 mmHg 42%
    12:00 +27°C° 0 mm 3 m/s 661 mmHg 41%
    13:00 +27°C° 0 mm 3 m/s 660 mmHg 41%
    14:00 +28°C° 0 mm 3 m/s 660 mmHg 41%
    15:00 +28°C° 0 mm 4 m/s 660 mmHg 41%
    16:00 +27°C° 0 mm 3 m/s 660 mmHg 44%
    17:00 +27°C° 0 mm 3 m/s 660 mmHg 48%
    18:00 +26°C° 0 mm 2 m/s 660 mmHg 51%
    19:00 +24°C° 0 mm 2 m/s 660 mmHg 53%
    20:00 +23°C° 0 mm 2 m/s 660 mmHg 54%
    21:00 +21°C° 0 mm 1 m/s 660 mmHg 56%
    22:00 +20°C° 0 mm 2 m/s 660 mmHg 56%
    23:00 +19°C° 0 mm 2 m/s 660 mmHg 56%

    23 Juin, Dimanche

    Heure Température Précipitation Vent Pression Humidité
    00:00 +19°C° 0 mm 2 m/s 660 mmHg 55%
    01:00 +19°C° 0 mm 2 m/s 660 mmHg 54%
    02:00 +19°C° 0 mm 2 m/s 659 mmHg 52%
    03:00 +19°C° 0 mm 2 m/s 659 mmHg 51%
    04:00 +19°C° 0 mm 2 m/s 660 mmHg 52%
    05:00 +21°C° 0 mm 1 m/s 660 mmHg 53%
    06:00 +22°C° 0 mm 1 m/s 660 mmHg 54%
    07:00 +23°C° 0 mm 1 m/s 660 mmHg 48%
    08:00 +25°C° 0 mm 1 m/s 661 mmHg 43%
    09:00 +26°C° 0 mm 1 m/s 661 mmHg 38%
    10:00 +27°C° 0 mm 2 m/s 661 mmHg 37%
    11:00 +28°C° 0 mm 2 m/s 661 mmHg 36%
    12:00 +29°C° 0 mm 2 m/s 661 mmHg 35%
    13:00 +29°C° 0 mm 2 m/s 661 mmHg 35%
    14:00 +30°C° 0 mm 2 m/s 660 mmHg 35%
    15:00 +30°C° 0 mm 2 m/s 660 mmHg 35%
    16:00 +29°C° 0 mm 2 m/s 660 mmHg 39%
    17:00 +28°C° 0 mm 2 m/s 660 mmHg 44%
    18:00 +28°C° 0 mm 2 m/s 660 mmHg 48%
    19:00 +26°C° 0 mm 2 m/s 659 mmHg 51%
    20:00 +24°C° 0 mm 2 m/s 659 mmHg 54%
    21:00 +22°C° 0 mm 1 m/s 659 mmHg 57%
    22:00 +22°C° 0 mm 1 m/s 659 mmHg 58%
    23:00 +22°C° 0 mm 1 m/s 659 mmHg 58%
    Voir plus